| time (UTC) | temp C | wind direction | speed KPH | gust KPH | rain 1hr cm | rain 24hr cm | rain mn cm | humidity % | barometer mb |
| 20260507010353 | 14 | 273 | 0.0 | 4.8 | 0.00 | 0.15 | 0.03 | 82 | 1010.5 |
| 20260507010005 | 13 | 273 | 0.0 | 4.8 | 0.00 | 0.15 | 0.03 | 83 | 1009.8 |
| 20260507005902 | 14 | 62 | 0.0 | 1.6 | 0.00 | 0.15 | 0.03 | 83 | 1010.3 |
| 20260507005354 | 14 | 62 | 0.0 | 6.4 | 0.00 | 0.15 | 0.03 | 84 | 1010.0 |
| 20260507004847 | 14 | 56 | 1.6 | 3.2 | 0.00 | 0.15 | 0.03 | 86 | 1010.1 |
| 20260507004600 | 14 | 55 | 0.0 | 1.6 | 0.00 | 0.15 | 0.03 | 86 | 1009.5 |
| 20260507004359 | 14 | 55 | 0.0 | 1.6 | 0.00 | 0.15 | 0.03 | 85 | 1010.3 |
| 20260507003851 | 15 | 55 | 0.0 | 4.8 | 0.00 | 0.15 | 0.03 | 83 | 1010.3 |
| 20260507003343 | 15 | 55 | 1.6 | 3.2 | 0.00 | 0.15 | 0.03 | 82 | 1010.4 |
| 20260507003039 | 14 | 248 | 0.0 | 3.2 | 0.00 | 0.15 | 0.03 | 82 | 1010.2 |
| 20260507002836 | 15 | 248 | 0.0 | 3.2 | 0.00 | 0.15 | 0.03 | 81 | 1010.9 |
| 20260507002409 | 15 | 248 | 1.6 | 4.8 | 0.00 | 0.15 | 0.03 | 81 | 1011.0 |
| 20260507001840 | 15 | 246 | 3.2 | 4.8 | 0.00 | 0.15 | 0.03 | 83 | 1010.7 |
| 20260507001559 | 15 | 317 | 1.6 | 4.8 | 0.00 | 0.15 | 0.03 | 82 | 1009.8 |
| 20260507001354 | 15 | 288 | 1.6 | 4.8 | 0.00 | 0.15 | 0.03 | 81 | 1010.4 |
| 20260507000906 | 15 | 55 | 0.0 | 4.8 | 0.00 | 0.15 | 0.03 | 82 | 1010.4 |
| 20260507000400 | 15 | 284 | 1.6 | 4.8 | 0.00 | 0.15 | 0.03 | 82 | 1010.3 |
| 20260507000050 | 15 | 333 | 0.0 | 8.0 | 0.00 | 0.15 | 0.03 | 82 | 1009.7 |
| 20260506235847 | 15 | 334 | 1.6 | 8.0 | 0.00 | 0.20 | 0.03 | 83 | 1010.3 |
| 20260506235340 | 15 | 326 | 526.3 | 526.3 | 0.00 | 0.00 | 0.03 | 82 | 1010.1 |
| 20260506234852 | 15 | 38 | 0.0 | 1.6 | 0.00 | 0.20 | 0.03 | 86 | 1010.0 |
| 20260506234545 | 15 | 38 | 0.0 | 6.4 | 0.00 | 0.20 | 0.03 | 82 | 1009.2 |
| 20260506234345 | 15 | 38 | 0.0 | 6.4 | 0.00 | 0.20 | 0.03 | 83 | 1010.0 |
| 20260506233838 | 15 | 40 | 1.6 | 6.4 | 0.00 | 0.20 | 0.03 | 86 | 1010.0 |
| 20260506233351 | 15 | 329 | 3.2 | 6.4 | 0.00 | 0.20 | 0.03 | 86 | 1010.0 |
| 20260506233004 | 15 | 78 | 0.0 | 3.2 | 0.00 | 0.20 | 0.03 | 88 | 1009.2 |
| 20260506232905 | 15 | 78 | 0.0 | 3.2 | 0.00 | 0.20 | 0.03 | 88 | 1009.8 |
| 20260506232356 | 15 | 78 | 0.0 | 8.0 | 0.00 | 0.20 | 0.03 | 88 | 1009.8 |
| 20260506231849 | 16 | 78 | 1.6 | 8.0 | 0.00 | 0.20 | 0.03 | 87 | 1009.7 |
| 20260506231541 | 15 | 115 | 1.6 | 3.2 | 0.00 | 0.20 | 0.03 | 87 | 1008.8 |
| 20260506231341 | 16 | 115 | 0.0 | 4.8 | 0.00 | 0.20 | 0.03 | 86 | 1009.5 |
| 20260506230853 | 16 | 115 | 1.6 | 4.8 | 0.00 | 0.20 | 0.03 | 86 | 1009.2 |
| 20260506230406 | 16 | 213 | 0.0 | 6.4 | 0.00 | 0.20 | 0.03 | 85 | 1009.3 |
| 20260506230031 | 16 | 213 | 0.0 | 6.4 | 0.00 | 0.20 | 0.03 | 83 | 1008.4 |
| 20260506225338 | 16 | 74 | 1.6 | 6.4 | 0.00 | 0.25 | 0.03 | 81 | 1009.1 |
| 20260506224850 | 16 | 68 | 0.0 | 4.8 | 0.00 | 0.25 | 0.03 | 80 | 1009.3 |
| 20260506224504 | 16 | 294 | 1.6 | 6.4 | 0.00 | 0.25 | 0.03 | 78 | 1008.6 |
| 20260506224402 | 16 | 294 | 0.0 | 6.4 | 0.00 | 0.25 | 0.03 | 78 | 1009.3 |
| 20260506223837 | 17 | 287 | 1.6 | 11.3 | 0.00 | 0.25 | 0.03 | 80 | 1009.3 |
| 20260506223350 | 17 | 308 | 3.2 | 11.3 | 0.00 | 0.25 | 0.03 | 81 | 1009.0 |
| 20260506223045 | 16 | 49 | 1.6 | 9.7 | 0.00 | 0.25 | 0.03 | 80 | 1008.2 |
| 20260506222843 | 17 | 347 | 1.6 | 8.0 | 0.00 | 0.25 | 0.03 | 80 | 1008.9 |
| 20260506222415 | 17 | 33 | 1.6 | 8.0 | 0.00 | 0.25 | 0.03 | 81 | 1008.8 |
| 20260506221846 | 17 | 331 | 3.2 | 6.4 | 0.00 | 0.25 | 0.03 | 81 | 1008.8 |
| 20260506221610 | 17 | 345 | 1.6 | 4.8 | 0.00 | 0.25 | 0.03 | 81 | 1008.0 |
| 20260506221400 | 17 | 78 | 1.6 | 6.4 | 0.00 | 0.25 | 0.03 | 82 | 1008.7 |
| 20260506220929 | 17 | 355 | 1.6 | 9.7 | 0.00 | 0.25 | 0.03 | 81 | 1008.7 |
| 20260506220058 | 17 | 56 | 1.6 | 4.8 | 0.00 | 0.25 | 0.03 | 83 | 1008.1 |
| 20260506214603 | 17 | 48 | 1.6 | 8.0 | 0.00 | 0.28 | 0.03 | 84 | 1007.5 |
| 20260506213057 | 17 | 288 | 1.6 | 4.8 | 0.00 | 0.28 | 0.03 | 85 | 1007.2 |
| 20260506211556 | 17 | 207 | 0.0 | 4.8 | 0.00 | 0.28 | 0.03 | 86 | 1007.1 |
| 20260506210054 | 17 | 86 | 0.0 | 4.8 | 0.00 | 0.28 | 0.03 | 88 | 1006.9 |
| 20260506204559 | 18 | 37 | 1.6 | 8.0 | 0.00 | 0.36 | 0.03 | 84 | 1006.8 |
| 20260506203053 | 17 | 80 | 0.0 | 6.4 | 0.00 | 0.36 | 0.03 | 95 | 1006.6 |
| 20260506201653 | 17 | 143 | 0.0 | 0.0 | 0.00 | 0.36 | 0.03 | 97 | 1006.2 |
| 20260506200052 | 17 | 143 | 0.0 | 0.0 | 0.00 | 0.36 | 0.03 | 97 | 1006.0 |
| 20260506194552 | 17 | 143 | 0.0 | 0.0 | 0.00 | 0.48 | 0.03 | 97 | 1005.8 |
| 20260506193052 | 17 | 143 | 0.0 | 0.0 | 0.00 | 0.48 | 0.03 | 97 | 1005.9 |
| 20260506191552 | 17 | 143 | 0.0 | 0.0 | 0.00 | 0.48 | 0.03 | 97 | 1005.8 |
| 20260506190050 | 17 | 143 | 0.0 | 0.0 | 0.00 | 0.48 | 0.03 | 97 | 1006.1 |
| 20260506184549 | 17 | 143 | 0.0 | 0.0 | 0.00 | 0.76 | 0.03 | 98 | 1006.0 |
| 20260506183048 | 17 | 143 | 0.0 | 0.0 | 0.00 | 0.76 | 0.03 | 97 | 1006.0 |
| 20260506181548 | 17 | 143 | 0.0 | 0.0 | 0.00 | 0.76 | 0.03 | 97 | 1006.1 |
| 20260506180048 | 17 | 143 | 0.0 | 0.0 | 0.00 | 0.76 | 0.03 | 96 | 1006.4 |
| 20260506174555 | 17 | 143 | 0.0 | 0.0 | 0.00 | 1.12 | 0.03 | 95 | 1006.4 |
| 20260506174344 | 17 | 143 | 0.0 | 0.0 | 0.00 | 1.12 | 0.03 | 95 | 1007.3 |
| 20260506173837 | 17 | 143 | 0.0 | 0.0 | 0.00 | 1.12 | 0.03 | 95 | 1007.1 |
| 20260506173349 | 18 | 143 | 0.0 | 0.0 | 0.00 | 1.12 | 0.03 | 94 | 1007.2 |
| 20260506173003 | 17 | 143 | 0.0 | 0.0 | 0.00 | 1.12 | 0.03 | 94 | 1006.1 |
| 20260506172902 | 18 | 143 | 0.0 | 0.0 | 0.00 | 1.12 | 0.03 | 94 | 1007.0 |
| 20260506172354 | 17 | 143 | 0.0 | 0.0 | 0.00 | 1.12 | 0.03 | 94 | 1007.0 |
| 20260506171845 | 18 | 143 | 0.0 | 0.0 | 0.00 | 1.12 | 0.03 | 95 | 1007.0 |
| 20260506171538 | 17 | 143 | 0.0 | 0.0 | 0.00 | 1.12 | 0.03 | 95 | 1006.0 |
| 20260506171338 | 18 | 143 | 0.0 | 0.0 | 0.00 | 1.12 | 0.03 | 95 | 1007.0 |
| 20260506170851 | 18 | 143 | 0.0 | 0.0 | 0.00 | 1.12 | 0.03 | 94 | 1007.0 |
| 20260506170341 | 18 | 143 | 0.0 | 0.0 | 0.00 | 1.12 | 0.03 | 94 | 1006.9 |
| 20260506170012 | 17 | 143 | 0.0 | 0.0 | 0.00 | 1.12 | 0.03 | 94 | 1006.0 |
| 20260506165912 | 18 | 143 | 0.0 | 0.0 | 0.00 | 1.57 | 0.03 | 94 | 1006.9 |
| 20260506164556 | 17 | 143 | 0.0 | 0.0 | 0.00 | 1.57 | 0.03 | 93 | 1005.8 |
| 20260506164355 | 18 | 143 | 0.0 | 0.0 | 0.00 | 1.57 | 0.03 | 93 | 1006.8 |
| 20260506163847 | 17 | 143 | 0.0 | 0.0 | 0.00 | 1.57 | 0.03 | 92 | 1006.8 |
| 20260506163341 | 18 | 143 | 0.0 | 1.6 | 0.00 | 1.57 | 0.03 | 91 | 1006.8 |
| 20260506163055 | 17 | 143 | 0.0 | 1.6 | 0.00 | 1.57 | 0.03 | 91 | 1005.8 |
| 20260506162853 | 18 | 143 | 0.0 | 1.6 | 0.00 | 1.57 | 0.03 | 90 | 1006.8 |
| 20260506162406 | 18 | 143 | 0.0 | 1.6 | 0.03 | 1.57 | 0.03 | 89 | 1006.7 |
| 20260506161838 | 18 | 143 | 0.0 | 4.8 | 0.03 | 1.57 | 0.03 | 86 | 1006.6 |
| 20260506161558 | 18 | 143 | 0.0 | 4.8 | 0.03 | 1.57 | 0.03 | 85 | 1005.7 |
| 20260506161351 | 18 | 143 | 0.0 | 4.8 | 0.03 | 1.57 | 0.03 | 84 | 1006.7 |
| 20260506160903 | 18 | 118 | 0.0 | 4.8 | 0.03 | 1.57 | 0.03 | 81 | 1006.7 |
| 20260506160356 | 18 | 178 | 1.6 | 9.7 | 0.03 | 1.57 | 0.03 | 80 | 1006.7 |
| 20260506160006 | 18 | 203 | 3.2 | 9.7 | 0.03 | 1.57 | 0.03 | 79 | 1005.7 |
| 20260506155906 | 19 | 181 | 4.8 | 8.0 | 0.03 | 1.63 | 0.03 | 79 | 1006.6 |
| 20260506155338 | 19 | 146 | 1.6 | 6.4 | 0.03 | 1.63 | 0.03 | 80 | 1006.6 |
| 20260506154850 | 19 | 95 | 1.6 | 9.7 | 0.03 | 1.63 | 0.03 | 81 | 1006.5 |
| 20260506154544 | 18 | 119 | 4.8 | 0.0 | 0.00 | 0.00 | 0.03 | 82 | 1005.5 |
| 20260506154342 | 18 | 207 | 3.2 | 12.9 | 0.03 | 1.63 | 0.03 | 81 | 1006.5 |
| 20260506153915 | 18 | 98 | 6.4 | 12.9 | 0.03 | 1.63 | 0.03 | 82 | 1006.5 |
| 20260506153347 | 18 | 276 | 4.8 | 11.3 | 0.03 | 1.63 | 0.03 | 83 | 1006.5 |
| 20260506153059 | 18 | 194 | 4.8 | 11.3 | 0.03 | 1.63 | 0.03 | 84 | 1005.5 |
| 20260506152859 | 18 | 248 | 4.8 | 11.3 | 0.03 | 1.63 | 0.03 | 84 | 1006.5 |
| 20260506152350 | 18 | 111 | 1.6 | 6.4 | 0.00 | 1.60 | 0.00 | 89 | 1006.7 |
| 20260506151844 | 17 | 228 | 1.6 | 6.4 | 0.00 | 1.60 | 0.00 | 90 | 1006.7 |
| 20260506151556 | 17 | 178 | 1.6 | 6.4 | 0.00 | 1.60 | 0.00 | 91 | 1005.7 |
| 20260506151356 | 17 | 144 | 1.6 | 6.4 | 0.00 | 1.60 | 0.00 | 91 | 1006.7 |
| 20260506144611 | 16 | 219 | 0.0 | 0.0 | 0.00 | 2.01 | 0.00 | 96 | 1005.6 |
| 20260506143056 | 15 | 219 | 0.0 | 0.0 | 0.00 | 2.01 | 0.00 | 97 | 1005.8 |
| 20260506141554 | 15 | 219 | 0.0 | 0.0 | 0.00 | 2.01 | 0.00 | 97 | 1005.7 |
| 20260506140106 | 15 | 219 | 0.0 | 0.0 | 0.00 | 2.01 | 0.00 | 98 | 1005.9 |
| 20260506134554 | 15 | 219 | 0.0 | 0.0 | 0.00 | 2.06 | 0.00 | 98 | 1006.2 |
| 20260506133116 | 14 | 219 | 0.0 | 0.0 | 0.00 | 2.06 | 0.00 | 98 | 1006.5 |
| 20260506131551 | 14 | 219 | 0.0 | 0.0 | 0.00 | 2.06 | 0.00 | 97 | 1006.6 |
| 20260506130133 | 14 | 219 | 0.0 | 0.0 | 0.00 | 2.06 | 0.00 | 97 | 1006.1 |
| 20260506124553 | 14 | 219 | 0.0 | 0.0 | 0.00 | 2.06 | 0.00 | 97 | 1005.9 |
| 20260506123049 | 13 | 219 | 0.0 | 0.0 | 0.00 | 2.06 | 0.00 | 96 | 1006.2 |
| 20260506121553 | 14 | 219 | 0.0 | 0.0 | 0.00 | 2.06 | 0.00 | 95 | 1006.3 |
| 20260506120047 | 13 | 219 | 0.0 | 0.0 | 0.00 | 2.06 | 0.00 | 94 | 1006.2 |
| 20260506114545 | 14 | 219 | 0.0 | 0.0 | 0.00 | 2.06 | 0.00 | 92 | 1006.2 |
| 20260506113049 | 14 | 219 | 0.0 | 0.0 | 0.00 | 2.06 | 0.00 | 89 | 1006.2 |
| 20260506111540 | 15 | 219 | 0.0 | 0.0 | 0.00 | 2.06 | 0.00 | 85 | 1006.3 |
| 20260506110042 | 15 | 219 | 0.0 | 0.0 | 0.00 | 2.06 | 0.00 | 81 | 1006.2 |
| 20260506104535 | 15 | 219 | 0.0 | 0.0 | 0.00 | 2.06 | 0.00 | 78 | 1006.0 |
| 20260506103033 | 15 | 219 | 0.0 | 0.0 | 0.00 | 2.06 | 0.00 | 79 | 1006.0 |
| 20260506101535 | 16 | 219 | 0.0 | 0.0 | 0.00 | 2.06 | 0.00 | 75 | 1005.9 |
| 20260506100036 | 15 | 219 | 0.0 | 0.0 | 0.00 | 2.06 | 0.00 | 74 | 1005.5 |
| 20260506094530 | 16 | 219 | 0.0 | 0.0 | 0.00 | 2.06 | 0.00 | 77 | 1005.4 |
| 20260506093033 | 16 | 219 | 0.0 | 0.0 | 0.00 | 2.06 | 0.00 | 72 | 1005.4 |
| 20260506091526 | 16 | 219 | 0.0 | 0.0 | 0.00 | 2.06 | 0.00 | 70 | 1005.6 |
| 20260506090024 | 16 | 219 | 0.0 | 0.0 | 0.00 | 2.06 | 0.00 | 70 | 1005.7 |
| 20260506084523 | 16 | 219 | 0.0 | 0.0 | 0.00 | 2.06 | 0.00 | 69 | 1005.7 |
| 20260506083028 | 16 | 219 | 0.0 | 0.0 | 0.00 | 2.06 | 0.00 | 68 | 1005.8 |
| 20260506081519 | 16 | 219 | 0.0 | 0.0 | 0.00 | 2.06 | 0.00 | 70 | 1005.8 |
| 20260506073015 | 16 | 219 | 0.0 | 0.0 | 0.00 | 2.06 | 0.00 | 64 | 1005.9 |
| 20260506071517 | 17 | 219 | 0.0 | 0.0 | 0.00 | 2.06 | 0.00 | 61 | 1005.9 |
| 20260506061504 | 17 | 219 | 0.0 | 0.0 | 0.00 | 2.06 | 0.00 | 59 | 1006.5 |
| 20260506044845 | 19 | 219 | 1.6 | 3.2 | 0.00 | 2.06 | 0.00 | 55 | 1008.4 |
| 20260506044557 | 19 | 219 | 0.0 | 3.2 | 0.00 | 2.06 | 0.00 | 52 | 1007.6 |
| 20260506044356 | 19 | 219 | 0.0 | 4.8 | 0.00 | 2.06 | 0.00 | 52 | 1008.4 |
| 20260506043847 | 20 | 219 | 1.6 | 4.8 | 0.00 | 2.06 | 0.00 | 51 | 1008.3 |
| 20260506043341 | 20 | 219 | 0.0 | 1.6 | 0.00 | 2.06 | 0.00 | 52 | 1008.3 |
| 20260506043057 | 20 | 219 | 0.0 | 1.6 | 0.00 | 2.06 | 0.00 | 51 | 1007.5 |
| 20260506042853 | 20 | 219 | 0.0 | 3.2 | 0.00 | 2.06 | 0.00 | 49 | 1008.3 |
| 20260506042405 | 21 | 219 | 0.0 | 4.8 | 0.00 | 2.06 | 0.00 | 44 | 1008.4 |
| 20260506041836 | 21 | 186 | 0.0 | 11.3 | 0.08 | 2.06 | 0.00 | 44 | 1008.3 |
| 20260506041526 | 21 | 159 | 0.0 | 11.3 | 0.08 | 2.06 | 0.00 | 46 | 1007.5 |
| 20260506040836 | 21 | 131 | 3.2 | 8.0 | 0.13 | 2.06 | 0.00 | 41 | 1008.2 |
| 20260506040349 | 22 | 200 | 1.6 | 4.8 | 0.13 | 2.06 | 0.00 | 40 | 1008.3 |
| 20260506040039 | 21 | 280 | 0.0 | 4.8 | 0.13 | 2.06 | 0.00 | 40 | 1007.5 |
| 20260506035838 | 22 | 141 | 0.0 | 6.4 | 0.13 | 2.06 | 2.06 | 43 | 1008.3 |
| 20260506035411 | 22 | 174 | 1.6 | 11.3 | 0.13 | 2.06 | 2.06 | 40 | 1008.3 |
| 20260506034843 | 22 | 140 | 4.8 | 11.3 | 0.13 | 2.06 | 2.06 | 39 | 1008.3 |
| 20260506034540 | 22 | 108 | 1.6 | 9.7 | 0.13 | 2.06 | 2.06 | 39 | 1007.6 |
| 20260506034335 | 22 | 190 | 3.2 | 9.7 | 0.13 | 2.06 | 2.06 | 39 | 1008.3 |
| 20260506033848 | 22 | 214 | 4.8 | 11.3 | 0.13 | 2.06 | 2.06 | 39 | 1008.3 |
| 20260506033340 | 22 | 167 | 6.4 | 11.3 | 0.13 | 2.06 | 2.06 | 39 | 1008.3 |
| 20260506033053 | 22 | 148 | 3.2 | 11.3 | 0.13 | 2.06 | 2.06 | 39 | 1007.5 |
| 20260506032852 | 22 | 138 | 3.2 | 25.7 | 0.13 | 2.06 | 2.06 | 39 | 1008.2 |
| 20260506032343 | 22 | 195 | 4.8 | 25.7 | 0.13 | 2.06 | 2.06 | 39 | 1008.3 |
| 20260506031856 | 22 | 129 | 3.2 | 14.5 | 0.05 | 1.98 | 1.98 | 39 | 1008.3 |
| 20260506031552 | 22 | 107 | 4.8 | 14.5 | 0.05 | 1.98 | 1.98 | 39 | 1007.5 |
| 20260506031347 | 22 | 186 | 3.2 | 12.9 | 0.00 | 1.93 | 1.93 | 40 | 1008.3 |
| 20260506030839 | 22 | 177 | 3.2 | 11.3 | 0.00 | 1.93 | 1.93 | 41 | 1008.2 |
| 20260506030355 | 21 | 232 | 3.2 | 11.3 | 0.00 | 1.93 | 1.93 | 42 | 1008.2 |
| 20260506030005 | 21 | 141 | 3.2 | 11.3 | 0.00 | 1.93 | 1.93 | 45 | 1007.6 |
| 20260506025903 | 21 | 182 | 3.2 | 11.3 | 0.00 | 1.93 | 1.93 | 44 | 1008.3 |
| 20260506025336 | 20 | 182 | 4.8 | 9.7 | 0.00 | 1.93 | 1.93 | 45 | 1008.3 |
| 20260506024848 | 20 | 117 | 0.0 | 8.0 | 0.00 | 1.93 | 1.93 | 48 | 1008.4 |
| 20260506024549 | 20 | 192 | 0.0 | 8.0 | 0.00 | 1.93 | 1.93 | 50 | 1007.7 |
| 20260506024340 | 20 | 212 | 3.2 | 8.0 | 0.00 | 1.93 | 1.93 | 47 | 1008.4 |
| 20260506023853 | 20 | 87 | 0.0 | 4.8 | 0.00 | 1.93 | 1.93 | 49 | 1008.4 |
| 20260506023406 | 19 | 89 | 0.0 | 3.2 | 0.00 | 1.93 | 1.93 | 52 | 1008.4 |
| 20260506023017 | 19 | 89 | 0.0 | 4.8 | 0.00 | 1.93 | 1.93 | 51 | 1007.6 |
| 20260506022855 | 19 | 89 | 0.0 | 4.8 | 0.00 | 1.93 | 1.93 | 51 | 1008.4 |
| 20260506022348 | 19 | 90 | 526.3 | 526.3 | 0.00 | 0.00 | 1.93 | 52 | 1008.2 |
| 20260506021839 | 19 | 308 | 0.0 | 1.6 | 0.00 | 1.93 | 1.93 | 52 | 1008.4 |
| 20260506021553 | 19 | 276 | 0.0 | 3.2 | 0.00 | 1.93 | 1.93 | 52 | 1007.7 |
| 20260506021353 | 20 | 276 | 0.0 | 6.4 | 0.00 | 1.93 | 1.93 | 52 | 1008.3 |
| 20260506020845 | 20 | 276 | 1.6 | 6.4 | 0.00 | 1.93 | 1.93 | 48 | 1008.4 |
| 20260506020340 | 20 | 149 | 1.6 | 6.4 | 0.00 | 1.93 | 1.93 | 53 | 1008.4 |
| 20260506020049 | 19 | 148 | 1.6 | 6.4 | 0.00 | 1.93 | 1.93 | 50 | 1007.7 |
| 20260506015849 | 20 | 150 | 0.0 | 4.8 | 0.00 | 1.93 | 1.93 | 49 | 1008.4 |
| 20260506015342 | 20 | 228 | 1.6 | 4.8 | 0.00 | 1.93 | 1.93 | 54 | 1008.3 |
| 20260506014838 | 20 | 68 | 1.6 | 4.8 | 0.00 | 1.93 | 1.93 | 53 | 1008.3 |
| 20260506014552 | 20 | 287 | 0.0 | 3.2 | 0.00 | 1.93 | 1.93 | 55 | 1007.6 |
| 20260506014351 | 20 | 142 | 1.6 | 4.8 | 0.00 | 1.93 | 1.93 | 50 | 1008.2 |
| 20260506013845 | 20 | 139 | 0.0 | 6.4 | 0.00 | 1.93 | 1.93 | 53 | 1008.2 |
| 20260506013336 | 20 | 217 | 1.6 | 6.4 | 0.00 | 1.93 | 1.93 | 54 | 1008.2 |
| 20260506013103 | 19 | 292 | 0.0 | 3.2 | 0.00 | 1.93 | 1.93 | 54 | 1007.6 |
| 20260506012849 | 19 | 141 | 0.0 | 3.2 | 0.00 | 1.93 | 1.93 | 56 | 1008.2 |
| 20260506012341 | 19 | 66 | 0.0 | 0.0 | 0.00 | 1.93 | 1.93 | 54 | 1008.1 |
| 20260506011835 | 19 | 66 | 0.0 | 0.0 | 0.00 | 1.93 | 1.93 | 55 | 1008.2 |
| 20260506011516 | 19 | 66 | 0.0 | 0.0 | 0.00 | 1.93 | 1.93 | 54 | 1007.5 |
| 20260506011408 | 20 | 66 | 0.0 | 0.0 | 0.00 | 1.93 | 1.93 | 54 | 1008.2 |
| 20260506010841 | 20 | 63 | 0.0 | 0.0 | 0.00 | 1.93 | 1.93 | 53 | 1008.2 |